Starlink 11681

operational
NORAD ID: 63755 Int'l Des: 2025-089 Owner: SPXS Country: US Constellation: starlink
LEOCIRCULAR

关于 Starlink 11681

正在加载描述...

实时位置

正在加载3D地球...

即将过境

高度历史

Altitude vs Time

uPlot chart will show altitude changes over time

两行轨道根数

1 63755U 25089E 25352.56293643 .00202833 00000-0 15414-2 0 9990
2 63755 43.0005 61.4945 0002038 279.2200 80.8437 15.70909296 37372
Epoch: Dec 18, 2025 • Age: 11 hours

当前状态

高度 356.0 km
速度 7.70 km/s
星下点 20.12°N, 115.39°E
发射日期 Apr 29, 2025
运行时间 0.6 years
类型 internet

技术详情

分类 Payload
质量 960.00 kg
干质量 910.00 kg
总质量 960.00 kg
长度 0.30 m
直径 4.10 m
跨度 29.00 m
形状 Box + pan
制造商 SPXS
平台类型 Starlink V2MD
阶段状态 In Orbit
所有者/国家 SPXS/US

大型星座

Loading constellations...